Time,TemperatureF,DewpointF,PressureIn,WindDirection,WindDirectionDegrees,WindSpeedMPH,WindSpeedGustMPH,Humidity,HourlyPrecipIn,Conditions,Clouds,dailyrainin,SolarRadiationWatts/m^2,SoftwareType,DateUTC
2013-03-13 00:00:00,29.0,26.0,-100.00,NW,315,12.0,-999.0,87,-99.99,,,-99.99,0.000000,,2013-03-13 04:00:00,
2013-03-13 00:32:00,29.0,26.0,-100.00,NW,315,12.0,-999.0,87,-99.99,,,-99.99,0.000000,,2013-03-13 04:32:00,
2013-03-13 00:43:00,29.0,26.0,-100.00,NW,315,12.0,-999.0,87,-99.99,,,-99.99,0.000000,,2013-03-13 04:43:00,
2013-03-13 00:53:00,29.0,26.0,-100.00,NW,315,12.0,-999.0,87,-99.99,,,-99.99,0.000000,,2013-03-13 04:53:00,
2013-03-13 01:00:00,28.0,26.0,-100.00,WNW,292,11.0,-999.0,92,-99.99,,,-99.99,0.000000,,2013-03-13 05:00:00,
2013-03-13 01:42:00,28.0,26.0,-100.00,WNW,292,11.0,-999.0,92,-99.99,,,-99.99,0.000000,,2013-03-13 05:42:00,
2013-03-13 01:52:00,28.0,26.0,-100.00,WNW,292,11.0,-999.0,92,-99.99,,,-99.99,0.000000,,2013-03-13 05:52:00,
2013-03-13 02:00:00,29.0,21.0,-100.00,NW,315,11.0,-999.0,73,-99.99,,,-99.99,0.000000,,2013-03-13 06:00:00,
2013-03-13 02:42:00,29.0,21.0,-100.00,NW,315,11.0,-999.0,73,-99.99,,,-99.99,0.000000,,2013-03-13 06:42:00,
2013-03-13 02:52:00,29.0,21.0,-100.00,NW,315,11.0,-999.0,73,-99.99,,,-99.99,0.000000,,2013-03-13 06:52:00,
2013-03-13 03:00:00,28.0,21.0,-100.00,NW,315,12.0,-999.0,74,-99.99,,,-99.99,0.000000,,2013-03-13 07:00:00,
2013-03-13 03:43:00,28.0,21.0,-100.00,NW,315,12.0,-999.0,74,-99.99,,,-99.99,0.000000,,2013-03-13 07:43:00,
2013-03-13 03:53:00,28.0,21.0,-100.00,NW,315,12.0,-999.0,74,-99.99,,,-99.99,0.000000,,2013-03-13 07:53:00,
2013-03-13 04:00:00,27.0,22.0,-100.00,WNW,292,11.0,-999.0,81,-99.99,,,-99.99,0.000000,,2013-03-13 08:00:00,
2013-03-13 04:43:00,27.0,22.0,-100.00,WNW,292,11.0,-999.0,81,-99.99,,,-99.99,0.000000,,2013-03-13 08:43:00,
2013-03-13 04:54:00,27.0,22.0,-100.00,WNW,292,11.0,-999.0,81,-99.99,,,-99.99,0.000000,,2013-03-13 08:54:00,
2013-03-13 05:00:00,27.0,22.0,-100.00,West,270,12.0,-999.0,80,-99.99,,,-99.99,0.000000,,2013-03-13 09:00:00,
2013-03-13 05:42:00,27.0,22.0,-100.00,West,270,12.0,-999.0,80,-99.99,,,-99.99,0.000000,,2013-03-13 09:42:00,
2013-03-13 05:52:00,27.0,22.0,-100.00,West,270,12.0,-999.0,80,-99.99,,,-99.99,0.000000,,2013-03-13 09:52:00,
2013-03-13 06:00:00,26.0,21.0,-100.00,South,180,11.0,-999.0,80,-99.99,,,-99.99,0.000000,,2013-03-13 10:00:00,
2013-03-13 06:42:00,26.0,21.0,-100.00,South,180,11.0,-999.0,80,-99.99,,,-99.99,0.000000,,2013-03-13 10:42:00,
2013-03-13 06:52:00,26.0,21.0,-100.00,South,180,11.0,-999.0,80,-99.99,,,-99.99,0.000000,,2013-03-13 10:52:00,
2013-03-13 07:00:00,25.0,19.0,-100.00,SW,225,13.0,-999.0,76,-99.99,,,-99.99,0.000000,,2013-03-13 11:00:00,
2013-03-13 07:32:00,25.0,19.0,-100.00,SW,225,13.0,-999.0,76,-99.99,,,-99.99,0.000000,,2013-03-13 11:32:00,
2013-03-13 07:42:00,25.0,19.0,-100.00,SW,225,13.0,-999.0,76,-99.99,,,-99.99,0.000000,,2013-03-13 11:42:00,
2013-03-13 07:52:00,25.0,19.0,-100.00,SW,225,13.0,-999.0,76,-99.99,,,-99.99,0.000000,,2013-03-13 11:52:00,
2013-03-13 08:00:00,25.0,17.0,-100.00,WSW,247,13.0,-999.0,72,-99.99,,,-99.99,0.000000,,2013-03-13 12:00:00,
2013-03-13 08:42:00,25.0,17.0,-100.00,WSW,247,13.0,-999.0,72,-99.99,,,-99.99,0.000000,,2013-03-13 12:42:00,
2013-03-13 08:53:00,25.0,17.0,-100.00,WSW,247,13.0,-999.0,72,-99.99,,,-99.99,0.000000,,2013-03-13 12:53:00,
2013-03-13 09:00:00,25.0,18.0,-100.00,WNW,292,13.0,-999.0,75,-99.99,,,-99.99,17.400000,,2013-03-13 13:00:00,
2013-03-13 09:43:00,25.0,18.0,-100.00,WNW,292,13.0,-999.0,75,-99.99,,,-99.99,17.400000,,2013-03-13 13:43:00,
2013-03-13 09:53:00,25.0,18.0,-100.00,WNW,292,13.0,-999.0,75,-99.99,,,-99.99,17.400000,,2013-03-13 13:53:00,
2013-03-13 10:00:00,25.0,17.0,-100.00,West,270,11.0,-999.0,71,-99.99,,,-99.99,84.680000,,2013-03-13 14:00:00,
2013-03-13 10:42:00,25.0,17.0,-100.00,West,270,11.0,-999.0,71,-99.99,,,-99.99,84.680000,,2013-03-13 14:42:00,
2013-03-13 10:53:00,25.0,17.0,-100.00,West,270,11.0,-999.0,71,-99.99,,,-99.99,84.680000,,2013-03-13 14:53:00,
2013-03-13 11:00:00,26.0,19.0,-100.00,WSW,247,13.0,-999.0,75,-99.99,,,-99.99,199.520004,,2013-03-13 15:00:00,
2013-03-13 11:43:00,26.0,19.0,-100.00,WSW,247,13.0,-999.0,75,-99.99,,,-99.99,199.520004,,2013-03-13 15:43:00,
2013-03-13 11:53:00,26.0,19.0,-100.00,WSW,247,13.0,-999.0,75,-99.99,,,-99.99,199.520004,,2013-03-13 15:53:00,
2013-03-13 12:00:00,26.0,18.0,-100.00,WSW,247,14.0,-999.0,73,-99.99,,,-99.99,237.800003,,2013-03-13 16:00:00,
2013-03-13 12:42:00,26.0,18.0,-100.00,WSW,247,14.0,-999.0,73,-99.99,,,-99.99,237.800003,,2013-03-13 16:42:00,
2013-03-13 12:52:00,26.0,18.0,-100.00,WSW,247,14.0,-999.0,73,-99.99,,,-99.99,237.800003,,2013-03-13 16:52:00,
2013-03-13 13:00:00,26.0,17.0,-100.00,WSW,247,13.0,-999.0,69,-99.99,,,-99.99,263.320007,,2013-03-13 17:00:00,
2013-03-13 13:42:00,26.0,17.0,-100.00,WSW,247,13.0,-999.0,69,-99.99,,,-99.99,263.320007,,2013-03-13 17:42:00,
2013-03-13 13:53:00,26.0,17.0,-100.00,WSW,247,13.0,-999.0,69,-99.99,,,-99.99,263.320007,,2013-03-13 17:53:00,
2013-03-13 14:00:00,28.0,17.0,-100.00,South,180,13.0,-999.0,63,-99.99,,,-99.99,378.160004,,2013-03-13 18:00:00,
2013-03-13 14:43:00,28.0,17.0,-100.00,South,180,13.0,-999.0,63,-99.99,,,-99.99,378.160004,,2013-03-13 18:43:00,
2013-03-13 14:52:00,28.0,17.0,-100.00,South,180,13.0,-999.0,63,-99.99,,,-99.99,378.160004,,2013-03-13 18:52:00,
2013-03-13 15:00:00,29.0,15.0,-100.00,SSW,202,14.0,-999.0,56,-99.99,,,-99.99,574.200012,,2013-03-13 19:00:00,
2013-03-13 15:43:00,29.0,15.0,-100.00,SSW,202,14.0,-999.0,56,-99.99,,,-99.99,574.200012,,2013-03-13 19:43:00,
2013-03-13 15:53:00,29.0,15.0,-100.00,SSW,202,14.0,-999.0,56,-99.99,,,-99.99,574.200012,,2013-03-13 19:53:00,
2013-03-13 16:00:00,29.0,16.0,-100.00,SW,225,14.0,-999.0,58,-99.99,,,-99.99,412.959991,,2013-03-13 20:00:00,
2013-03-13 16:42:00,29.0,16.0,-100.00,SW,225,14.0,-999.0,58,-99.99,,,-99.99,412.959991,,2013-03-13 20:42:00,
2013-03-13 16:52:00,29.0,16.0,-100.00,SW,225,14.0,-999.0,58,-99.99,,,-99.99,412.959991,,2013-03-13 20:52:00,
2013-03-13 17:00:00,30.0,16.0,-100.00,South,180,13.0,-999.0,55,-99.99,,,-99.99,534.760010,,2013-03-13 21:00:00,
2013-03-13 17:42:00,30.0,16.0,-100.00,South,180,13.0,-999.0,55,-99.99,,,-99.99,534.760010,,2013-03-13 21:42:00,
2013-03-13 17:52:00,30.0,16.0,-100.00,South,180,13.0,-999.0,55,-99.99,,,-99.99,534.760010,,2013-03-13 21:52:00,
2013-03-13 18:00:00,31.0,16.0,-100.00,SSW,202,12.0,-999.0,53,-99.99,,,-99.99,387.440002,,2013-03-13 22:00:00,
2013-03-13 18:42:00,31.0,16.0,-100.00,SSW,202,12.0,-999.0,53,-99.99,,,-99.99,387.440002,,2013-03-13 22:42:00,
2013-03-13 18:52:00,31.0,16.0,-100.00,SSW,202,12.0,-999.0,53,-99.99,,,-99.99,387.440002,,2013-03-13 22:52:00,
2013-03-13 19:00:00,31.0,14.0,-100.00,SSW,202,12.0,-999.0,49,-99.99,,,-99.99,200.679993,,2013-03-13 23:00:00,
2013-03-13 19:43:00,31.0,14.0,-100.00,SSW,202,12.0,-999.0,49,-99.99,,,-99.99,200.679993,,2013-03-13 23:43:00,
2013-03-13 19:52:00,31.0,14.0,-100.00,SSW,202,12.0,-999.0,49,-99.99,,,-99.99,200.679993,,2013-03-13 23:52:00,
2013-03-13 21:00:00,29.0,13.0,-100.00,NW,315,8.0,-999.0,50,-99.99,,,-99.99,0.000000,,2013-03-14 01:00:00,
2013-03-13 21:42:00,29.0,13.0,-100.00,NW,315,8.0,-999.0,50,-99.99,,,-99.99,0.000000,,2013-03-14 01:42:00,
2013-03-13 21:53:00,29.0,13.0,-100.00,NW,315,8.0,-999.0,50,-99.99,,,-99.99,0.000000,,2013-03-14 01:53:00,
2013-03-13 22:00:00,29.0,13.0,-100.00,WNW,292,7.0,-999.0,52,-99.99,,,-99.99,0.000000,,2013-03-14 02:00:00,
2013-03-13 23:42:00,29.0,13.0,-100.00,NW,315,8.0,-999.0,51,-99.99,,,-99.99,0.000000,,2013-03-14 03:42:00,
2013-03-13 23:53:00,29.0,13.0,-100.00,NW,315,8.0,-999.0,51,-99.99,,,-99.99,0.000000,,2013-03-14 03:53:00,